When you browse on this site, cookies collect data to enhance your experience and personalize the content and advertising you see.
Visit our Privacy Policy to learn more. By continuing to use the site, you agree to this use of cookies and data.
  • în România
  • Lista ţărilor
  • Pe 7 zile
  • Temperatura apei
  • Meteo pe hartă
  • Widget-uri
  • user-avatar
    Intrare

    Meteo pe oră la Gitega

    Astăzi, 22 Noiembrie, Vineri

    Timp Temperatura Precipitaţii Vânt Presiune Umiditate
    00:00 +15°C° 0 mm 0 m/s 621 mmHg 92%
    01:00 +15°C° 0 mm 0 m/s 621 mmHg 92%
    02:00 +16°C° 0 mm 1 m/s 620 mmHg 92%
    03:00 +15°C° 0 mm 0 m/s 620 mmHg 92%
    04:00 +15°C° 0 mm 0 m/s 620 mmHg 92%
    05:00 +15°C° 0 mm 0 m/s 620 mmHg 91%
    06:00 +16°C° 0 mm 0 m/s 622 mmHg 87%
    07:00 +18°C° 0 mm 0 m/s 623 mmHg 83%
    08:00 +20°C° 0 mm 0 m/s 624 mmHg 78%
    09:00 +23°C° 0 mm 1 m/s 624 mmHg 74%
    10:00 +24°C° 0 mm 2 m/s 623 mmHg 69%
    11:00 +25°C° 0 mm 2 m/s 623 mmHg 64%
    12:00 +25°C° 0.6 mm 2 m/s 623 mmHg 66%
    13:00 +26°C° 0.6 mm 2 m/s 622 mmHg 67%
    14:00 +26°C° 0.6 mm 2 m/s 622 mmHg 69%
    15:00 +25°C° 1.3 mm 1 m/s 621 mmHg 74%
    16:00 +24°C° 1.3 mm 1 m/s 621 mmHg 79%
    17:00 +21°C° 1.3 mm 0 m/s 620 mmHg 85%
    18:00 +20°C° 2.3 mm 0 m/s 621 mmHg 86%
    19:00 +21°C° 2.3 mm 1 m/s 621 mmHg 87%
    20:00 +20°C° 2.3 mm 1 m/s 622 mmHg 88%
    21:00 +20°C° 1.1 mm 1 m/s 622 mmHg 88%
    22:00 +20°C° 1.1 mm 1 m/s 622 mmHg 89%
    23:00 +19°C° 1.1 mm 1 m/s 622 mmHg 90%

    Mâine, 23 Noiembrie, Sâmbătă

    Timp Temperatura Precipitaţii Vânt Presiune Umiditate
    00:00 +19°C° 1.3 mm 1 m/s 621 mmHg 92%
    01:00 +18°C° 1.3 mm 1 m/s 621 mmHg 93%
    02:00 +18°C° 1.3 mm 1 m/s 621 mmHg 95%
    03:00 +18°C° 0.8 mm 1 m/s 621 mmHg 95%
    04:00 +18°C° 0.8 mm 1 m/s 621 mmHg 95%
    05:00 +18°C° 0.8 mm 1 m/s 621 mmHg 95%
    06:00 +18°C° 1.8 mm 1 m/s 622 mmHg 96%
    07:00 +18°C° 1.8 mm 1 m/s 623 mmHg 96%
    08:00 +18°C° 1.8 mm 1 m/s 623 mmHg 97%
    09:00 +19°C° 0.5 mm 1 m/s 623 mmHg 92%
    10:00 +21°C° 0.5 mm 1 m/s 623 mmHg 87%
    11:00 +21°C° 0.5 mm 2 m/s 623 mmHg 82%
    12:00 +21°C° 1.8 mm 2 m/s 623 mmHg 81%
    13:00 +23°C° 1.8 mm 2 m/s 623 mmHg 81%
    14:00 +23°C° 1.8 mm 2 m/s 622 mmHg 80%
    15:00 +22°C° 3.1 mm 1 m/s 622 mmHg 86%
    16:00 +20°C° 3.1 mm 1 m/s 621 mmHg 91%
    17:00 +19°C° 3.1 mm 1 m/s 621 mmHg 96%
    18:00 +19°C° 1.8 mm 1 m/s 621 mmHg 96%
    19:00 +18°C° 1.8 mm 1 m/s 622 mmHg 96%
    20:00 +18°C° 1.8 mm 1 m/s 622 mmHg 96%
    21:00 +18°C° 0.6 mm 1 m/s 622 mmHg 96%
    22:00 +18°C° 0.6 mm 1 m/s 622 mmHg 96%
    23:00 +15°C° 0.6 mm 0 m/s 622 mmHg 96%

    Poimâine, 24 Noiembrie, Duminică

    Timp Temperatura Precipitaţii Vânt Presiune Umiditate
    00:00 +15°C° 0.3 mm 0 m/s 622 mmHg 96%
    01:00 +15°C° 0.3 mm 0 m/s 622 mmHg 97%
    02:00 +15°C° 0.3 mm 0 m/s 622 mmHg 97%
    03:00 +16°C° 0.9 mm 1 m/s 622 mmHg 97%
    04:00 +16°C° 0.9 mm 1 m/s 622 mmHg 97%
    05:00 +16°C° 0.9 mm 1 m/s 622 mmHg 97%
    06:00 +18°C° 0.2 mm 1 m/s 622 mmHg 94%
    07:00 +19°C° 0.2 mm 1 m/s 623 mmHg 91%
    08:00 +20°C° 0.2 mm 1 m/s 624 mmHg 87%
    09:00 +20°C° 1.2 mm 1 m/s 624 mmHg 86%
    10:00 +21°C° 1.2 mm 1 m/s 624 mmHg 85%
    11:00 +21°C° 1.2 mm 1 m/s 624 mmHg 83%
    12:00 +20°C° 2.3 mm 1 m/s 624 mmHg 88%
    13:00 +19°C° 2.3 mm 1 m/s 623 mmHg 92%
    14:00 +18°C° 2.3 mm 1 m/s 622 mmHg 96%
    15:00 +18°C° 2.8 mm 1 m/s 622 mmHg 96%
    16:00 +18°C° 2.8 mm 1 m/s 622 mmHg 97%
    17:00 +16°C° 2.8 mm 1 m/s 622 mmHg 97%
    18:00 +16°C° 0.3 mm 1 m/s 622 mmHg 96%
    19:00 +16°C° 0.3 mm 1 m/s 622 mmHg 96%
    20:00 +15°C° 0.3 mm 0 m/s 623 mmHg 95%
    21:00 +15°C° 0 mm 0 m/s 623 mmHg 94%
    22:00 +16°C° 0 mm 1 m/s 623 mmHg 93%
    23:00 +16°C° 0 mm 1 m/s 623 mmHg 93%

    25 Noiembrie, Luni

    Timp Temperatura Precipitaţii Vânt Presiune Umiditate
    00:00 +16°C° 0 mm 1 m/s 622 mmHg 93%
    01:00 +16°C° 0 mm 1 m/s 622 mmHg 93%
    02:00 +15°C° 0 mm 0 m/s 621 mmHg 92%
    03:00 +15°C° 0 mm 0 m/s 621 mmHg 92%
    04:00 +15°C° 0 mm 0 m/s 622 mmHg 92%
    05:00 +15°C° 0 mm 0 m/s 622 mmHg 92%
    06:00 +16°C° 0 mm 0 m/s 622 mmHg 89%
    07:00 +19°C° 0 mm 1 m/s 623 mmHg 86%
    08:00 +20°C° 0 mm 1 m/s 624 mmHg 83%
    09:00 +21°C° 1 mm 1 m/s 624 mmHg 80%
    10:00 +23°C° 1 mm 1 m/s 625 mmHg 77%
    11:00 +24°C° 1 mm 1 m/s 625 mmHg 74%
    12:00 +24°C° 1.7 mm 1 m/s 624 mmHg 74%
    13:00 +24°C° 1.7 mm 1 m/s 623 mmHg 75%
    14:00 +24°C° 1.7 mm 1 m/s 623 mmHg 76%
    15:00 +22°C° 1.8 mm 1 m/s 622 mmHg 81%
    16:00 +21°C° 1.8 mm 1 m/s 622 mmHg 87%
    17:00 +20°C° 1.8 mm 1 m/s 621 mmHg 93%
    18:00 +19°C° 2.8 mm 1 m/s 622 mmHg 94%
    19:00 +17°C° 2.8 mm 2 m/s 622 mmHg 95%
    20:00 +17°C° 2.8 mm 2 m/s 623 mmHg 97%
    21:00 +17°C° 2.5 mm 2 m/s 623 mmHg 97%
    22:00 +17°C° 2.5 mm 2 m/s 623 mmHg 97%
    23:00 +16°C° 2.5 mm 1 m/s 623 mmHg 98%

    26 Noiembrie, Marţi

    Timp Temperatura Precipitaţii Vânt Presiune Umiditate
    00:00 +16°C° 0.2 mm 1 m/s 622 mmHg 98%
    01:00 +16°C° 0.2 mm 1 m/s 622 mmHg 98%
    02:00 +15°C° 0.2 mm 0 m/s 622 mmHg 97%
    03:00 +15°C° 0.1 mm 0 m/s 622 mmHg 97%
    04:00 +15°C° 0.1 mm 0 m/s 622 mmHg 97%
    05:00 +15°C° 0.1 mm 0 m/s 622 mmHg 97%
    06:00 +15°C° 0.4 mm 0 m/s 622 mmHg 97%
    07:00 +15°C° 0.4 mm 0 m/s 623 mmHg 97%
    08:00 +15°C° 0.4 mm 0 m/s 623 mmHg 96%
    09:00 +16°C° 0.4 mm 0 m/s 623 mmHg 96%
    10:00 +16°C° 0.4 mm 0 m/s 623 mmHg 95%
    11:00 +16°C° 0.4 mm 0 m/s 623 mmHg 95%
    12:00 +19°C° 0.2 mm 1 m/s 623 mmHg 92%
    13:00 +19°C° 0.2 mm 1 m/s 622 mmHg 90%
    14:00 +20°C° 0.2 mm 1 m/s 621 mmHg 88%
    15:00 +20°C° 0.3 mm 1 m/s 621 mmHg 87%
    16:00 +19°C° 0.3 mm 0 m/s 621 mmHg 85%
    17:00 +19°C° 0.3 mm 0 m/s 621 mmHg 84%
    18:00 +18°C° 0.1 mm 0 m/s 621 mmHg 87%
    19:00 +17°C° 0.1 mm 0 m/s 621 mmHg 89%
    20:00 +15°C° 0.1 mm 0 m/s 621 mmHg 92%
    21:00 +15°C° 0 mm 0 m/s 621 mmHg 92%
    22:00 +15°C° 0 mm 0 m/s 621 mmHg 93%
    23:00 +14°C° 0 mm 0 m/s 621 mmHg 94%

    27 Noiembrie, Miercuri

    Timp Temperatura Precipitaţii Vânt Presiune Umiditate
    00:00 +14°C° 0 mm 0 m/s 621 mmHg 94%
    01:00 +14°C° 0 mm 0 m/s 621 mmHg 94%
    02:00 +14°C° 0 mm 0 m/s 620 mmHg 94%
    03:00 +14°C° 0 mm 0 m/s 621 mmHg 94%
    04:00 +14°C° 0 mm 0 m/s 621 mmHg 93%
    05:00 +14°C° 0 mm 0 m/s 621 mmHg 93%
    06:00 +15°C° 0 mm 0 m/s 622 mmHg 89%
    07:00 +17°C° 0 mm 0 m/s 623 mmHg 85%
    08:00 +20°C° 0 mm 1 m/s 623 mmHg 82%
    09:00 +22°C° 0.1 mm 1 m/s 623 mmHg 77%
    10:00 +23°C° 0.1 mm 2 m/s 624 mmHg 72%
    11:00 +24°C° 0.1 mm 2 m/s 624 mmHg 67%
    12:00 +24°C° 1 mm 2 m/s 623 mmHg 68%
    13:00 +25°C° 1 mm 2 m/s 622 mmHg 69%
    14:00 +25°C° 1 mm 2 m/s 621 mmHg 70%
    15:00 +24°C° 1.3 mm 1 m/s 621 mmHg 75%
    16:00 +23°C° 1.3 mm 1 m/s 621 mmHg 80%
    17:00 +23°C° 1.3 mm 1 m/s 621 mmHg 84%
    18:00 +20°C° 1.1 mm 0 m/s 621 mmHg 85%
    19:00 +18°C° 1.1 mm 0 m/s 621 mmHg 86%
    20:00 +17°C° 1.1 mm 0 m/s 621 mmHg 87%
    21:00 +17°C° 0.3 mm 0 m/s 621 mmHg 88%
    22:00 +16°C° 0.3 mm 0 m/s 621 mmHg 88%
    23:00 +16°C° 0.3 mm 0 m/s 622 mmHg 89%
    Arată mai mult